Las Vegas, NV

6:49 PM PST on February 13, 2016 (GMT -0800)
McCarran International

Weather History for KLAS - June, 2013

Change the Weather History Date:

Thursday, June 20, 2013

  Actual Average Record
Temperature  
Mean Temperature 86 °F 88 °F  
Max Temperature 98 °F 100 °F 113 °F (1961)
Min Temperature 73 °F 76 °F 53 °F (1939)
Degree Days  
Heating Degree Days 0 0  
Month to date heating degree days 0 0  
Since 1 June heating degree days 0 0  
Since 1 July heating degree days 1757 1950  
Cooling Degree Days 21 23  
Month to date cooling degree days 521 404  
Year to date cooling degree days 1211 954  
Since 1 June cooling degree days 521 404  
Growing Degree Days 36 (Base 50)    
Moisture  
Dew Point 10 °F    
Average Humidity 6    
Maximum Humidity 9    
Minimum Humidity 3    
Precipitation  
Precipitation 0.00 in 0.01 in 0.00 in (2016)
Month to date precipitation 0.00 0.05  
Year to date precipitation 0.61 2.06  
Snow  
Snow 0.00 in 0.00 in 0.00 in ()
Month to date snowfall 0.0 0.0  
Since 1 June snowfall 0.0 0.0  
Since 1 July snowfall T 0.3  
Snow Depth 0.00 in    
Sea Level Pressure  
Sea Level Pressure 29.63 in    
Wind  
Wind Speed 12 mph (SSW)    
Max Wind Speed 23 mph    
Max Gust Speed 30 mph    
Visibility 10 miles    
Events      
T = Trace of Precipitation, MM = Missing Value Source: NWS Daily Summary

Daily Weather History Graph

Daily Weather History Graph

Search for Another Location

Airport or City:

Trip Planner

Search our weather history database for the weather conditions in past years. The results will help you decide how hot, cold, wet, or windy it might be!

Date:

Astronomy

Jun. 20, 2013 Rise Set
Actual Time 5:23 AM PDT 8:00 PM PDT
Civil Twilight 4:53 AM PDT 8:31 PM PDT
Nautical Twilight 4:15 AM PDT 9:08 PM PDT
Astronomical Twilight 3:33 AM PDT 9:50 PM PDT
Moon 5:10 PM PDT (6/20) 2:49 AM PDT (6/20)
Length of Visible Light 15h 37m
Length of Day
14h 36m
Waxing Gibbous, 89% of the Moon is Illuminated
Jun 20
Waxing Gibbous
Jun 23
Full
Jun 29
Last Quarter
Jul 8
New
Jul 15
First Quarter

Hourly Weather History & Observations

Time (PDT) Temp. Dew Point Humidity Pressure Visibility Wind Dir Wind Speed Gust Speed Precip Events Conditions
12:56 AM 82.9 °F 10.0 °F 6% 29.59 in 10.0 mi SSW 16.1 mph - N/A   Clear
1:56 AM 80.1 °F 7.0 °F 6% 29.59 in 10.0 mi South 15.0 mph - N/A   Clear
2:56 AM 77.0 °F 7.0 °F 7% 29.58 in 10.0 mi South 13.8 mph - N/A   Clear
3:56 AM 75.9 °F 5.0 °F 6% 29.60 in 10.0 mi SW 8.1 mph - N/A   Clear
4:56 AM 73.9 °F 6.1 °F 7% 29.62 in 10.0 mi SSW 12.7 mph - N/A   Clear
5:56 AM 73.0 °F 10.0 °F 9% 29.64 in 10.0 mi South 10.4 mph - N/A   Clear
6:56 AM 75.0 °F 10.9 °F 9% 29.67 in 10.0 mi South 9.2 mph - N/A   Clear
7:56 AM 80.1 °F 12.9 °F 8% 29.68 in 10.0 mi SSW 6.9 mph - N/A   Clear
8:56 AM 82.0 °F 10.9 °F 7% 29.69 in 10.0 mi Variable 5.8 mph - N/A   Clear
9:56 AM 86.0 °F 10.0 °F 6% 29.69 in 10.0 mi Calm Calm - N/A   Clear
10:56 AM 87.1 °F 9.0 °F 5% 29.69 in 10.0 mi Variable 4.6 mph - N/A   Clear
11:56 AM 90.0 °F 9.0 °F 5% 29.68 in 10.0 mi SSW 5.8 mph - N/A   Clear
12:56 PM 91.0 °F 9.0 °F 5% 29.66 in 10.0 mi SSW 5.8 mph - N/A   Clear
1:56 PM 95.0 °F 10.0 °F 4% 29.63 in 10.0 mi South 13.8 mph 27.6 mph N/A   Clear
2:56 PM 97.0 °F 6.1 °F 4% 29.61 in 10.0 mi SSW 13.8 mph 26.5 mph N/A   Clear
3:56 PM 97.0 °F 8.1 °F 4% 29.60 in 10.0 mi SSW 17.3 mph 25.3 mph N/A   Clear
4:56 PM 96.1 °F 9.0 °F 4% 29.59 in 10.0 mi SSW 13.8 mph 26.5 mph N/A   Clear
5:56 PM 96.1 °F 9.0 °F 4% 29.58 in 10.0 mi SW 19.6 mph 25.3 mph N/A   Clear
6:56 PM 93.9 °F 12.9 °F 5% 29.58 in 10.0 mi SSW 13.8 mph 24.2 mph N/A   Clear
7:56 PM 91.9 °F 12.0 °F 5% 29.59 in 10.0 mi SW 18.4 mph - N/A   Clear
8:56 PM 90.0 °F 14.0 °F 6% 29.60 in 10.0 mi SW 16.1 mph - N/A   Clear
9:56 PM 88.0 °F 12.9 °F 6% 29.62 in 10.0 mi SSW 16.1 mph - N/A   Clear
10:56 PM 86.0 °F 14.0 °F 7% 29.63 in 10.0 mi South 10.4 mph - N/A   Clear
11:56 PM 86.0 °F 14.0 °F 7% 29.63 in 10.0 mi SSW 12.7 mph - N/A   Clear